SCP
0 0 0 0 0 0 0 0 0 0 0 0 0 1 1 1 2 2 2 2 1 1 1 1 1 1 2 2 2 1 1 1 1 1 1 1 0 0 0 0 1 1 1 1
0 0 0 0 0 0 0 0 0 0 0 0 0 0 1 1 2 2 2 2 2 2 2 2 1 1 2 2 2 2 1 1 1 1 1 1 1 1 0 1 1 1 1 1
0 0 0 0 0 0 0 0 0 0 0 0 0 0 0 1 1 2 2 2 2 2 2 2 1 1 1 2 2 2 2 1 1 1 1 1 1 1 1 1 1 1 1 1
0 0 0 0 0 0 0 0 0 0 0 0 0 0 0 0 1 2 2 2 2 2 2 1 1 1 2 2 2 2 2 2 1 1 1 1 1 1 1 1 1 1 1 1
0 0 0 0 0 0 0 0 0 0 0 0 0 0 0 0 1 1 2 2 2 2 2 2 2 2 2 2 2 2 2 2 2 2 1 1 1 1 1 1 1 1 1 1
0 0 0 0 0 0 0 0 0 0 0 0 0 0 0 0 1 1 2 2 2 2 2 2 2 3 3 2 3 3 3 3 3 2 2 2 1 1 1 1 1 1 1 1
0 0 0 0 0 0 0 0 0 0 0 0 0 0 0 0 0 1 2 2 2 2 2 3 3 3 3 2 2 3 3 3 3 3 2 2 1 1 1 1 1 1 1 1
0 0 0 0 0 0 0 0 0 0 0 0 0 0 0 0 0 1 1 2 2 2 3 3 3 3 2 2 3 3 3 3 3 3 2 2 1 1 1 1 1 1 1 1
0 0 0 0 0 0 0 0 0 0 0 0 0 0 0 0 0 1 1 2 2 2 3 3 3 3 2 2 3 3 2 2 2 2 2 2 2 2 1 1 1 1 1 1
0 0 0 0 0 0 0 0 0 0 0 0 0 0 0 0 0 1 1 2 2 3 3 4 3 3 3 3 3 3 3 2 2 2 2 2 2 2 1 1 1 1 1 1
0 0 0 0 0 0 0 0 0 0 0 0 0 0 0 0 0 1 1 2 3 3 4 4 3 3 3 3 3 3 3 2 2 2 2 2 2 2 1 1 1 1 1 1
0 0 0 0 0 0 0 0 0 0 0 0 0 0 0 0 1 1 2 3 4 4 4 4 4 3 3 3 3 3 2 2 2 2 2 3 3 2 2 1 1 1 1 1
0 0 0 0 0 0 0 0 0 0 0 0 0 0 1 1 1 2 3 4 4 4 5 4 4 4 4 4 3 3 3 2 2 3 3 3 2 2 2 2 2 2 2 2
0 0 0 0 0 0 0 0 0 0 0 0 0 1 1 1 2 3 4 5 4 4 4 5 5 5 5 5 4 4 4 3 3 4 4 3 2 2 2 2 2 2 3 3
0 0 0 0 0 0 0 0 0 0 0 0 0 1 1 1 2 4 5 5 4 4 4 5 5 6 6 6 5 5 5 5 5 5 5 4 3 3 2 2 2 2 3 3
0 0 0 0 0 0 0 0 0 0 0 0 0 0 1 1 2 3 4 5 5 4 4 5 5 6 6 6 6 6 6 6 6 6 5 4 4 3 3 2 2 2 2 3
0 0 0 0 0 0 0 1 1 1 1 1 1 1 2 2 3 4 4 5 5 4 4 4 5 6 6 6 6 6 6 7 7 7 6 5 5 4 3 3 2 2 2 2
0 0 0 0 0 0 0 1 1 2 2 2 2 2 3 4 5 5 5 6 5 4 3 3 4 6 6 6 7 7 7 8 8 8 8 7 6 5 4 3 2 2 2 3
0 0 0 0 0 0 0 1 1 2 2 2 2 3 4 5 6 5 5 5 5 4 3 3 4 6 7 7 8 9 9 9 9 10 10 9 8 6 4 3 2 2 3 3
0 0 0 0 0 0 0 0 1 2 2 2 3 4 6 6 5 5 5 5 5 5 4 4 5 7 8 8 9 10 10 10 10 10 10 10 8 6 4 3 3 2 2 2
0 0 0 0 0 0 0 1 1 1 2 3 4 6 6 6 5 4 5 6 7 7 6 5 6 7 8 9 10 10 8 8 8 9 9 9 7 6 4 3 3 2 2 2
0 0 0 0 0 0 1 1 1 1 1 3 4 5 6 5 5 5 7 8 9 8 7 6 7 8 8 9 9 8 7 6 7 7 8 7 7 6 4 3 3 3 3 3
0 0 0 1 1 1 1 1 1 1 1 2 4 5 5 5 6 7 8 9 9 9 8 7 7 8 8 9 8 7 7 7 7 7 7 7 6 6 4 3 3 3 3 3
0 1 1 2 2 2 2 3 3 2 2 3 4 5 5 6 6 6 8 9 9 9 8 7 7 8 8 8 8 7 7 8 8 7 7 7 7 6 4 4 3 3 3 3
1 1 2 2 2 3 4 4 4 4 3 4 4 5 5 6 6 6 6 8 8 8 7 7 7 8 8 8 8 8 8 8 8 8 8 7 7 6 5 4 3 2 2 2
0 1 1 2 2 3 5 5 5 4 4 4 4 5 5 6 6 5 5 6 7 6 6 6 6 8 8 8 8 9 9 8 8 8 8 8 7 6 5 4 3 2 1 1
Wind_Speed
3 5 2 5 6 4 4 3 4 5 3 4 5 5 5 9 9 9 9 9 9 10 7 5 6 7 6 6 6 6 6 5 4 3 2 2 2 2 2 2 3 3 4 4
5 2 6 4 4 3 3 2 2 2 0 3 2 3 3 9 12 11 11 11 10 8 5 6 6 7 8 8 7 7 7 6 5 4 3 2 2 1 2 2 2 3 4 4
5 6 2 2 2 2 2 4 4 2 1 3 2 4 2 4 6 7 8 8 9 11 10 8 8 8 8 8 9 8 8 6 6 5 2 2 1 1 0 1 1 2 3 4
4 4 2 2 2 4 4 5 4 3 3 1 1 3 6 4 5 9 11 10 11 10 10 9 9 9 9 10 8 7 7 6 5 5 4 4 3 3 3 2 2 2 2 3
4 2 2 3 4 5 4 1 3 3 4 2 1 1 8 1 6 12 13 13 13 12 12 11 11 11 9 8 8 7 7 6 5 6 6 5 3 3 1 1 1 1 1 2
5 3 3 5 2 3 4 7 7 6 5 1 2 3 8 5 9 9 11 13 12 12 11 11 9 8 7 7 7 7 7 7 6 6 6 5 5 4 3 2 2 2 1 1
3 4 2 2 2 2 5 7 5 5 4 5 2 3 10 8 7 9 10 12 12 10 11 10 10 10 9 9 9 8 8 7 7 7 7 6 6 6 5 4 3 3 2 2
2 6 4 2 5 5 4 9 9 5 5 5 1 6 9 6 6 6 6 7 7 9 10 11 11 10 10 10 9 9 9 8 7 7 7 6 6 4 4 4 4 3 3 3
6 6 4 2 2 8 6 3 6 8 3 1 5 7 10 5 6 4 1 4 7 8 9 10 9 10 9 9 9 9 9 8 7 8 7 6 6 5 5 4 3 3 3 2
7 4 4 3 3 4 4 8 6 7 6 3 4 4 5 8 7 5 1 4 6 6 7 8 8 8 8 7 7 7 8 8 7 7 7 6 6 5 4 3 3 3 3 2
4 4 4 2 2 3 3 4 6 5 5 7 3 7 6 6 5 5 4 4 5 7 8 8 7 7 7 6 6 7 7 6 5 6 5 5 4 4 4 4 3 3 3 3
2 5 2 5 3 1 4 6 8 6 4 4 5 8 5 4 4 3 3 2 2 4 5 6 6 6 6 7 6 7 6 6 6 6 5 5 4 4 4 4 4 4 3 3
3 6 2 5 5 4 2 2 4 6 6 5 5 8 4 4 4 3 2 1 1 3 3 4 5 6 6 6 6 6 6 7 6 6 6 5 5 5 5 5 4 3 3 3
6 5 6 8 6 3 2 1 3 6 5 5 7 7 7 7 5 5 3 1 1 3 4 4 4 5 5 6 6 6 6 6 6 6 7 6 6 6 6 5 5 4 4 4
5 3 2 3 3 2 2 3 3 4 7 8 7 6 8 7 5 5 3 1 1 2 2 4 5 5 5 5 5 6 6 5 6 6 7 7 7 6 6 6 6 6 5 4
4 3 1 1 1 2 2 3 3 4 3 4 3 5 6 5 3 3 2 2 3 3 4 3 4 4 5 5 5 4 5 6 6 7 7 6 6 6 7 6 6 5 4 4
2 3 3 3 3 2 3 4 4 3 2 4 4 6 4 3 4 5 5 4 5 5 4 5 5 6 7 6 5 5 4 4 5 5 5 5 6 6 6 6 6 5 5 4
5 4 3 1 1 5 7 2 2 3 1 1 1 3 3 5 6 5 4 4 4 4 4 5 4 4 4 4 4 4 4 5 5 5 5 5 5 5 5 6 5 5 4 4
4 7 4 3 3 4 5 1 1 1 1 1 1 4 5 5 4 3 1 1 3 4 4 4 4 4 3 4 4 4 4 4 5 5 5 5 5 5 6 6 5 4 4 3
4 4 5 4 4 6 6 4 4 2 3 3 3 3 4 3 2 5 4 4 4 3 3 3 2 1 2 3 4 5 4 4 5 5 4 5 5 5 6 6 6 5 5 4
3 3 3 3 3 6 5 6 3 3 5 6 4 3 3 3 6 6 5 5 3 2 2 1 1 1 2 3 5 5 5 6 5 4 4 5 5 5 5 4 4 5 5 4
3 3 3 3 3 6 3 3 2 4 5 4 5 4 5 6 6 5 4 3 2 2 1 1 1 1 1 2 4 5 5 4 4 4 4 4 4 4 5 5 5 5 5 5
3 5 5 6 6 4 2 2 4 3 4 4 4 6 5 6 6 5 3 2 2 2 1 1 1 1 0 1 3 4 3 3 4 4 4 4 4 3 4 5 5 4 4 4
2 1 1 2 5 5 4 4 4 3 4 5 5 5 4 5 5 5 3 3 3 2 2 1 1 1 0 0 1 3 4 4 5 4 4 3 4 4 3 3 4 4 4 4
4 1 0 3 5 6 4 3 4 4 3 4 5 5 4 4 4 3 3 3 3 3 2 1 1 2 2 1 1 2 4 5 5 5 4 4 4 4 4 3 2 2 2 4
4 5 4 6 6 4 7 5 5 4 4 4 5 5 5 4 3 2 2 2 3 2 2 1 0 1 1 2 1 1 4 5 5 5 4 4 4 4 4 4 2 4 3 3
Wind_Direction
45 75 179 214 194 191 181 191 242 252 211 173 216 234 203 183 190 198 203 205 210 218 218 197 188 180 172 175 179 184 186 184 165 159 170 177 201 212 215 218 216 208 205 199
42 260 229 207 188 176 175 213 252 292 135 155 223 263 217 191 201 202 203 208 212 216 207 197 189 182 182 184 187 189 194 189 182 178 168 167 168 191 209 217 220 210 207 201
188 234 208 157 173 175 211 198 214 208 40 39 74 325 253 217 212 215 213 212 212 210 206 199 194 193 188 192 193 196 197 193 188 174 143 122 96 67 153 227 229 217 210 208
224 250 191 182 216 164 247 226 191 160 115 304 107 274 279 221 218 222 221 214 213 211 203 198 196 196 198 201 193 193 189 189 185 169 169 171 182 201 213 206 222 232 210 212
236 215 178 209 220 174 212 124 116 114 119 64 28 173 284 242 234 234 224 217 214 207 199 198 199 200 200 194 189 188 183 187 182 178 182 180 196 206 195 183 220 231 227 219
238 249 211 209 205 157 127 69 54 50 67 1 235 174 273 233 223 237 224 217 210 202 198 198 194 186 189 185 185 183 183 192 185 182 183 189 200 199 191 203 214 218 214 227
307 300 263 179 114 45 96 88 36 6 12 253 252 197 250 255 242 232 224 216 206 195 191 190 186 185 189 188 189 186 186 195 190 186 191 196 203 197 199 204 207 205 207 223
189 280 259 200 177 179 166 139 155 188 214 268 298 232 254 273 284 260 226 204 190 189 191 192 191 190 192 193 189 185 190 196 191 192 200 198 198 198 204 204 200 203 210 221
174 248 287 258 202 144 138 164 157 134 153 252 283 289 303 320 339 341 139 161 183 189 188 189 188 185 188 191 190 187 188 193 194 196 195 195 196 197 202 202 197 202 212 217
157 221 285 300 72 39 126 141 104 120 146 216 283 287 277 306 316 319 265 191 195 185 182 182 184 185 186 188 185 181 185 192 195 194 196 199 195 195 192 184 193 200 208 206
135 166 294 14 155 180 101 97 103 113 148 156 217 266 241 249 269 269 253 215 192 185 186 181 178 176 172 168 168 176 183 181 188 195 195 194 189 183 177 184 197 198 199 192
124 127 238 263 264 215 150 157 144 148 198 168 168 258 276 262 267 257 254 241 193 180 178 169 165 162 165 170 173 179 181 183 191 189 186 191 183 171 175 185 191 187 191 190
117 110 78 338 341 2 73 138 138 122 117 149 166 255 309 338 327 306 278 245 166 150 147 145 150 164 175 180 182 180 184 191 186 174 176 183 181 178 184 187 181 179 182 182
115 108 161 195 216 226 253 210 150 125 143 187 212 240 301 319 314 307 296 267 158 150 153 153 164 179 184 184 185 180 189 192 178 173 179 190 189 181 185 180 167 173 187 187
97 126 196 225 235 208 222 229 192 186 183 182 215 222 255 267 266 270 266 247 122 138 160 178 185 188 187 189 191 188 181 176 177 181 190 198 190 179 175 175 174 177 180 182
70 130 138 272 274 227 258 264 212 213 192 193 198 249 268 282 295 288 259 205 196 198 201 202 199 194 195 197 196 199 192 178 176 188 201 194 183 180 179 179 173 168 168 163
86 117 120 243 299 17 263 234 194 190 194 168 197 246 299 312 289 255 241 220 218 218 209 203 207 208 205 204 196 192 195 176 174 186 191 186 183 182 183 180 171 173 173 165
143 122 133 160 96 216 236 268 172 148 127 156 226 280 268 266 275 260 231 217 240 241 230 222 218 223 217 195 184 176 166 165 175 180 181 177 179 182 177 172 175 173 162 163
155 139 128 131 173 261 287 297 114 141 240 9 322 318 327 333 343 317 293 278 259 247 235 229 220 216 207 185 172 157 162 173 180 184 183 176 174 180 180 180 180 170 153 156
73 99 119 134 164 221 241 293 303 145 242 334 350 322 327 6 352 281 312 322 304 290 264 242 234 199 189 176 151 154 171 177 195 190 184 171 174 181 184 180 174 165 156 161
42 51 122 164 202 253 267 305 10 144 249 305 303 285 282 251 241 263 292 302 302 297 284 249 196 209 205 175 154 162 174 193 194 167 157 161 165 169 173 168 162 154 148 149
169 154 179 154 188 245 314 30 118 236 270 286 285 275 278 285 279 272 270 273 293 317 313 268 169 208 218 172 159 171 186 183 147 134 142 142 145 154 151 153 156 154 152 158
191 191 190 191 213 241 279 259 262 247 271 280 277 286 285 288 284 284 281 291 296 295 280 266 198 167 175 163 162 176 178 142 130 126 139 138 134 138 143 151 154 155 158 160
290 138 147 280 277 285 291 296 294 276 269 282 281 283 275 279 282 288 293 297 304 297 266 250 194 162 124 296 174 160 151 142 137 138 137 144 152 151 151 158 159 163 171 173
240 219 202 269 282 307 300 300 300 306 313 316 314 304 288 286 291 292 302 307 314 316 315 275 201 189 169 182 207 146 141 141 143 145 152 162 166 161 155 140 134 163 179 189
216 194 193 234 242 242 270 283 294 296 302 308 318 321 317 300 289 307 316 324 325 317 309 308 99 178 181 175 195 162 142 146 154 158 165 167 170 164 157 152 127 69 88 104